Regional Weather Roundup
Issued by NWS Charleston, SC

Current Version | Previous Version | Graphics & Text | Print | Product List | Glossary On
Versions: 1 2 3 4 5 6 7 8 9 10 11 12 13 14 15 16 17 18 19 20 21 22 23 24 25 26 27 28 29 30 31 32 33 34 35 36 37 38 39 40 41 42 43 44 45 46 47 48 49 50
000 ASUS42 KCHS 100627 RWRCHS REGIONAL WEATHER ROUNDUP NATIONAL WEATHER SERVICE CHARLESTON SC 100 AM EST WED FEB 10 2016 NOTE: "FAIR" INDICATES FEW OR NO CLOUDS BELOW 12,000 FEET WITH NO SIGNIFICANT WEATHER AND/OR OBSTRUCTIONS TO VISIBILITY. NOT ALL STATIONS ARE QUALITY CONTROLLED BY THE NATIONAL WEATHER SERVICE. USE DATA WITH CAUTION...ESPECIALLY DEWPOINT OBSERVATIONS. SCZ027-030-031-034>040-042>050-100700- ...SOUTHEAST SOUTH CAROLINA... CITY SKY/WX TMP DP RH WIND PRES REMARKS N CHARLESTON CLEAR 35 17 47 W9 29.97S WCI 28 6HR MIN TEMP: 35; 6HR MAX TEMP: 42; WATERFRONT PRK N/A 37 19 48 W8 29.82S WCI 31 MOUNT PLEASANT FAIR 36 19 51 W9G17 29.97S WCI 29 JOHNS ISLAND FAIR 36 18 48 W12G20 29.98S WCI 27 PINOPOLIS N/A 36 23 60 W16 29.88R WCI 26 MONCKS CORNER FAIR 30 14 51 W5 29.96S WCI 25 SUMMERVILLE FAIR 34 23 64 W8 29.98S WCI 27 BEAUFORT MCAS CLEAR 35 18 49 W12 30.01F WCI 27 6HR MIN TEMP: 35; 6HR MAX TEMP: 42; BEAUFORT ARPT FAIR 36 19 51 W12G23 30.01S WCI 27 HILTON HEAD IS CLEAR 36 23 60 W7 30.03S WCI 30 WALTERBORO CLEAR 36 21 55 W9G17 29.99S WCI 29 ALLENDALE FAIR 32 19 59 CALM 29.99S ...SOUTHERN MIDLANDS AND PEE DEE... CITY SKY/WX TMP DP RH WIND PRES REMARKS GEORGETOWN NOT AVBL KINGSTREE NOT AVBL ORANGEBURG CLEAR 32 18 56 W8 29.95F WCI 25 6HR MIN TEMP: 32; 6HR MAX TEMP: 39; BARNWELL FAIR 32 19 59 W8 29.98S WCI 25 AIKEN FAIR 28 16 59 W7 29.98S WCI 21 MANNING FAIR 32 19 59 SW7 29.95R WCI 26 COLUMBIA PTCLDY 32 18 56 W14 29.93S WCI 22 6HR MIN TEMP: 31; 6HR MAX TEMP: 37; SUMTER PTCLDY 31 20 62 W8 29.90R WCI 24 6HR MIN TEMP: 31; 6HR MAX TEMP: 37; FLORENCE CLOUDY 35 25 66 W12 29.90R WCI 27 6HR MIN TEMP: 35; 6HR MAX TEMP: 39; MYRTLE BEACH PTCLDY 36 21 55 W12G20 29.93S WCI 27 N MYRTLE BEACH CLOUDY 37 24 59 W13 29.89R WCI 29 6HR MIN TEMP: 37; 6HR MAX TEMP: 42; $$ GAZ063-065-086>088-099>101-113>116-118-119-134>141-150-100700- ...SOUTHEAST GEORGIA... CITY SKY/WX TMP DP RH WIND PRES REMARKS SAVANNAH ARPT PTCLDY 34 19 54 W8 30.04S WCI 27 6HR MIN TEMP: 34; 6HR MAX TEMP: 43; HUNTER AAF CLEAR 32 20 63 W7 30.01S WCI 25 6HR MIN TEMP: 32; 6HR MAX TEMP: 44; FORT STEWART PTCLDY 31 23 70 CALM 30.02F 6HR MIN TEMP: 31; 6HR MAX TEMP: 44; STATESBORO CLEAR 36 19 49 W7 30.03S WCI 30 SYLVANIA CLEAR 32 25 74 W5 30.02F WCI 28 CLAXTON FAIR 33 26 77 SW5 30.05R WCI 28 ...CSRA...CENTRAL AND FAR SOUTHEAST GEORGIA... CITY SKY/WX TMP DP RH WIND PRES REMARKS THOMSON CLEAR 31 21 66 W7 30.03S WCI 24 AUGUSTA-BUSH PTCLDY 31 15 52 W13 29.99F WCI 21 6HR MIN TEMP: 31; 6HR MAX TEMP: 38; AUGUSTA-DANIEL CLEAR 31 13 47 W7G17 29.97F WCI 24 SWAINSBORO FAIR 30 23 74 W3 30.03S VIDALIA PTCLDY 32 25 74 W5 30.04S WCI 27 EASTMAN FAIR 31 24 76 CALM 30.08S HAZLEHURST FAIR 32 27 82 CALM 30.05S ALMA CLEAR 31 25 78 SW5 30.07R WCI 26 6HR MIN TEMP: 31; 6HR MAX TEMP: 45; WAYCROSS PTCLDY 34 28 79 W3 30.08S JESUP FAIR 34 30 86 W3 30.07R BAXLEY FAIR 34 28 80 CALM 30.06S BRUNSWICK CLEAR 36 28 75 W3 30.08S SAINT SIMONS CLEAR 37 25 61 W6 30.06S WCI 32 6HR MIN TEMP: 37; 6HR MAX TEMP: 47; $$ SCZ027-028-034-036>038-045-046-048>050-GAZ119-141-100700- ...LAKE AND SUPPLEMENTAL COASTAL OBSERVATIONS... STATION/POSITION TIME TEMP WIND PRES WAVE SWELL AIR SEA DIR/SP/G HT/PER HT/PER/DIR (UTC) (F) (DEG/KT/KT) (MB) (FT/S) (FT/S/D) WINYAH BAY 0500 36 240/ 7 1012.0S LAKE MURRAY 0500 33 270/ 17/ 22 1012.5S ACE BASIN NERRS 0500 36 280/ 4 1016.0 FORT PULASKI 0600 38 51 280/ 15/ 18 1017.0S SAPELO ISLAND 0600 38 280/ 6 1018.0S $$ ANZ835-935-AMZ111-154-330-350-352-354-370-450-454-472-100700- ...C-MAN AND BUOY OBSERVATIONS... STATION/POSITION TIME TEMP WIND PRES WAVE SWELL AIR SEA DIR/SP/G HT/PER HT/PER/DIR (UTC) (F) (DEG/KT/KT) (MB) (FT/S) (FT/S/D) BUOY 41004 0550 44 64 280/ 29/ 35 1013.2F 8/ 5 2/16 BUOY 41008 0550 42 54 300/ 19/ 23 1017.5R 4/ 4 FOLLY BEACH CMAN 0600 36 260/ 9/ 13 1015.2R CAPERS NEARSHORE 0508 40 280/ 25/ 33 1014.0R FRIPP NEARSHORE 0500 41 310/ 21/ 27 1015.8R STATION/POSITION TIME TEMP WIND PRES WAVE SWELL AIR SEA DIR/SP/G HT/PER HT/PER/DIR (UTC) (F) (DEG/KT/KT) (MB) (FT/S) (FT/S/D) 5E ST. MARYS GA 0521 56 N/A 3/15 2/100/15 FRYING PAN BUOY 0600 44 57 270/ 25/ 31 1011.8F BUOY 41025 0550 45 73 270/ 23/ 29 1008.2R 10/15 7/100/15 CAPE LOOKOUT NC NOT AVBL BUOY 41002 0550 56 68 280/ 23/ 31 N/A 18/11 11/270/11 BUOY 41010 0520 62 72 1014.9R ST AUGUSTINE FL 0600 43 56 280/ 4/ 5 1019.5R $$

USA.gov is the U.S. government's official web portal to all federal, state and local government web resources and services.